[Iaude] MPEC J126: 2013 GM158 [a=43.54,e=0.02,i=2.7,H=7.9]

mpec at marsden.cfa.harvard.edu mpec at marsden.cfa.harvard.edu
Mon May 10 00:05:31 EDT 2021


M.P.E.C. 2021-J126                                 Issued 2021 May 10, 04:03 UT

     The Minor Planet Electronic Circulars contain information on unusual
         minor planets and routine data on comets.  They are published
    on behalf of Division F of the International Astronomical Union by the
          Minor Planet Center, Smithsonian Astrophysical Observatory,
                          Cambridge, MA 02138, U.S.A.

             Prepared using the Tamkin Foundation Computer Network

                              MPC at CFA.HARVARD.EDU
            URL https://www.minorplanetcenter.net/    ISSN 1523-6714

                                   2013 GM158                                   


Observations:
     K13GF8M RC2013 02 08.60359 14 06 01.956-10 34 09.19         23.4 rVEJ126568
     K13GF8M*RC2013 04 04.41383 14 03 35.309-10 19 27.32         24.1 rVEJ126568
     K13GF8M RC2013 04 04.45396 14 03 35.151-10 19 26.24         24.0 rVEJ126568
     K13GF8M RC2013 04 04.49439 14 03 34.961-10 19 25.45         23.7 rVEJ126568
     K13GF8M RC2013 04 05.53143 14 03 30.624-10 19 01.46               VEJ126568
     K13GF8M RC2013 04 05.53531 14 03 30.620-10 19 01.53         24.2 rVEJ126568
     K13GF8M RC2013 04 06.58684 14 03 26.174-10 18 37.08         24.6 rVEJ126568
     K13GF8M RC2013 04 08.38751 14 03 18.528-10 17 55.20         23.9 rVEJ126568
     K13GF8M RC2013 05 11.41804 14 00 54.354-10 05 14.87         24.3 rVEJ126568
     K13GF8M RC2013 05 12.41931 14 00 50.182-10 04 53.67         24.0 rVEJ126568
     K13GF8M RC2013 06 13.25755 13 59 00.946-09 56 10.12         24.4 rVEJ126568
     K13GF8M RC2013 06 13.29820 13 59 00.843-09 56 09.65         24.9 rVEJ126568
     K13GF8M RC2013 07 04.27893 13 58 24.170-09 53 54.24         24.0 rVEJ126568
     K13GF8M RC2014 03 27.41673 14 08 52.201-10 50 07.91         24.4 rVEJ126568
     K13GF8M RC2014 03 28.41797 14 08 48.355-10 49 46.70         24.4 rVEJ126568
     K13GF8M RC2014 03 28.45726 14 08 48.195-10 49 45.72         24.7 rVEJ126568
     K13GF8M RC2014 04 05.38215 14 08 16.265-10 46 50.92         24.9 rVEJ126568
     K13GF8M RC2015 04 19.41871 14 12 02.146-11 09 04.05         23.9 rVEJ126568
     K13GF8M RC2015 04 19.48487 14 12 01.864-11 09 02.44         23.9 rVEJ126568
     K13GF8M RC2016 02 04.64352 14 20 05.971-11 54 57.54         24.7 wVEJ126568
     K13GF8M RC2016 02 11.62203 14 20 04.554-11 54 33.38         24.0 wVEJ126568
     K13GF8M RC2016 03 12.50183 14 19 11.666-11 49 01.47         24.7 wVEJ126568

Observer details:
568 Mauna Kea.  Observer .  Measurers E. J. Ashton, J. J. Kavelaars, B. J.
    Gladman.  3.6-m Canada-France-Hawaii Telescope + CCD.

Orbital elements:
2013 GM158                                                                      
Epoch 2021 July 5.0 TT = JDT 2459400.5                  Alexandersen              
M 238.66094              (2000.0)            P               Q                  
n   0.00343044     Peri.  263.61082     +0.96557802     +0.25594229             
a  43.5414232      Node    81.55257     -0.21624417     +0.88898597             
e   0.0181932      Incl.    2.68847     -0.14455987     +0.37973344             
P 287              H    7.95          G   0.15           U   5                  
Residuals in seconds of arc
130208 568  0.1-  0.3+    130511 568  0.2+  0.1-    140405 568  0.0   0.1-
130404 568  0.1-  0.0     130512 568  0.0   0.0     150419 568  0.2-  0.0
130404 568  0.1+  0.1+    130613 568  0.0   0.1-    150419 568  0.1+  0.1+
130404 568  0.1-  0.0     130613 568  0.0   0.0     160204 568  0.1+  0.0
130405 568  0.0   0.1+    130704 568  0.2-  0.0     160211 568  0.1-  0.2-
130405 568  0.1+  0.1-    140327 568  0.0   0.0     160312 568  0.1+  0.3+
130406 568  0.0   0.0     140328 568  0.1+  0.2-
130408 568  0.1-  0.0     140328 568  0.1+  0.0

Ephemeris:
2013 GM158               a,e,i = 43.54, 0.02, 3                  q = 42.7493
Date    TT    R. A. (2000) Decl.     Delta      r    Elong.  Phase     V
2021 04 10    14 41 38.2 -13 51 16  43.0387 43.9672   157.7     0.5    24.4
...
2021 04 25    14 40 33.0 -13 46 10  42.9691 43.9666   172.5     0.2    24.4
...
2021 05 03    14 39 56.7 -13 43 23  42.9588 43.9663   178.1     0.0    24.4
...
2021 05 09    14 39 29.4 -13 41 19  42.9635 43.9661   173.2     0.2    24.4
2021 05 10    14 39 24.9 -13 40 59  42.9653 43.9660   172.3     0.2    24.4
2021 05 11    14 39 20.4 -13 40 38  42.9674 43.9660   171.3     0.2    24.4
...
2021 05 17    14 38 53.7 -13 38 39  42.9861 43.9657   165.5     0.3    24.4
...
2021 05 25    14 38 19.4 -13 36 08  43.0269 43.9654   157.7     0.5    24.4
...
2021 06 09    14 37 21.7 -13 32 02  43.1491 43.9648   143.1     0.8    24.5

M. P. C. Staff               (C) Copyright 2021 MPC           M.P.E.C. 2021-J126




More information about the Iaude mailing list